Time,TemperatureF,DewpointF,PressureIn,WindDirection,WindDirectionDegrees,WindSpeedMPH,WindSpeedGustMPH,Humidity,HourlyPrecipIn,Conditions,Clouds,dailyrainin,SoftwareType,DateUTC
2013-01-29 00:02:00,11.0,8.0,-100.00,ENE,63,22.0,-999.0,87,0.00,,,-99.99,,2013-01-29 00:02:00,
2013-01-29 00:12:00,11.0,8.0,-100.00,ENE,63,22.0,-999.0,87,0.00,,,-99.99,,2013-01-29 00:12:00,
2013-01-29 00:21:00,11.0,8.0,-100.00,ENE,63,22.0,-999.0,87,0.00,,,-99.99,,2013-01-29 00:21:00,
2013-01-29 00:30:00,11.0,9.0,-100.00,ENE,72,21.0,-999.0,90,0.00,,,-99.99,,2013-01-29 00:30:00,
2013-01-29 00:52:00,11.0,9.0,-100.00,ENE,72,21.0,-999.0,90,0.00,,,-99.99,,2013-01-29 00:52:00,
2013-01-29 01:02:00,11.0,9.0,-100.00,ENE,72,21.0,-999.0,90,0.00,,,-99.99,,2013-01-29 01:02:00,
2013-01-29 01:11:00,11.0,9.0,-100.00,ENE,72,21.0,-999.0,90,0.00,,,-99.99,,2013-01-29 01:11:00,
2013-01-29 01:22:00,11.0,9.0,-100.00,ENE,72,21.0,-999.0,90,0.00,,,-99.99,,2013-01-29 01:22:00,
2013-01-29 01:30:00,12.0,10.0,-100.00,ENE,60,23.0,-999.0,92,0.00,,,-99.99,,2013-01-29 01:30:00,
2013-01-29 01:52:00,12.0,10.0,-100.00,ENE,60,23.0,-999.0,92,0.00,,,-99.99,,2013-01-29 01:52:00,
2013-01-29 02:02:00,12.0,10.0,-100.00,ENE,60,23.0,-999.0,92,0.00,,,-99.99,,2013-01-29 02:02:00,
2013-01-29 02:11:00,12.0,10.0,-100.00,ENE,60,23.0,-999.0,92,0.00,,,-99.99,,2013-01-29 02:11:00,
2013-01-29 02:21:00,12.0,10.0,-100.00,ENE,60,23.0,-999.0,92,0.00,,,-99.99,,2013-01-29 02:21:00,
2013-01-29 02:30:00,14.0,12.0,-100.00,ENE,62,26.0,-999.0,93,0.00,,,-99.99,,2013-01-29 02:30:00,
2013-01-29 02:53:00,14.0,12.0,-100.00,ENE,62,26.0,-999.0,93,0.00,,,-99.99,,2013-01-29 02:53:00,
2013-01-29 03:02:00,14.0,12.0,-100.00,ENE,62,26.0,-999.0,93,0.00,,,-99.99,,2013-01-29 03:02:00,
2013-01-29 03:11:00,14.0,12.0,-100.00,ENE,62,26.0,-999.0,93,0.00,,,-99.99,,2013-01-29 03:11:00,
2013-01-29 03:21:00,14.0,12.0,-100.00,ENE,62,26.0,-999.0,93,0.00,,,-99.99,,2013-01-29 03:21:00,
2013-01-29 03:30:00,14.0,12.0,-100.00,ENE,63,25.0,-999.0,93,0.00,,,-99.99,,2013-01-29 03:30:00,
2013-01-29 03:53:00,14.0,12.0,-100.00,ENE,63,25.0,-999.0,93,0.00,,,-99.99,,2013-01-29 03:53:00,
2013-01-29 04:02:00,14.0,12.0,-100.00,ENE,63,25.0,-999.0,93,0.00,,,-99.99,,2013-01-29 04:02:00,
2013-01-29 04:11:00,14.0,12.0,-100.00,ENE,63,25.0,-999.0,93,0.00,,,-99.99,,2013-01-29 04:11:00,
2013-01-29 04:21:00,14.0,12.0,-100.00,ENE,63,25.0,-999.0,93,0.00,,,-99.99,,2013-01-29 04:21:00,
2013-01-29 04:30:00,14.0,13.0,-100.00,NE,55,26.0,-999.0,93,0.00,,,-99.99,,2013-01-29 04:30:00,
2013-01-29 04:52:00,14.0,13.0,-100.00,NE,55,26.0,-999.0,93,0.00,,,-99.99,,2013-01-29 04:52:00,
2013-01-29 05:03:00,14.0,13.0,-100.00,NE,55,26.0,-999.0,93,0.00,,,-99.99,,2013-01-29 05:03:00,
2013-01-29 05:12:00,14.0,13.0,-100.00,NE,55,26.0,-999.0,93,0.00,,,-99.99,,2013-01-29 05:12:00,
2013-01-29 05:21:00,14.0,13.0,-100.00,NE,55,26.0,-999.0,93,0.00,,,-99.99,,2013-01-29 05:21:00,
2013-01-29 05:30:00,17.0,15.0,-100.00,NE,48,26.0,-999.0,94,0.00,,,-99.99,,2013-01-29 05:30:00,
2013-01-29 05:52:00,17.0,15.0,-100.00,NE,48,26.0,-999.0,94,0.00,,,-99.99,,2013-01-29 05:52:00,
2013-01-29 06:01:00,17.0,15.0,-100.00,NE,48,26.0,-999.0,94,0.00,,,-99.99,,2013-01-29 06:01:00,
2013-01-29 06:11:00,17.0,15.0,-100.00,NE,48,26.0,-999.0,94,0.00,,,-99.99,,2013-01-29 06:11:00,
2013-01-29 06:21:00,17.0,15.0,-100.00,NE,48,26.0,-999.0,94,0.00,,,-99.99,,2013-01-29 06:21:00,
2013-01-29 06:30:00,18.0,17.0,-100.00,NE,50,25.0,-999.0,95,0.00,,,-99.99,,2013-01-29 06:30:00,
2013-01-29 06:52:00,18.0,17.0,-100.00,NE,50,25.0,-999.0,95,0.00,,,-99.99,,2013-01-29 06:52:00,
2013-01-29 07:01:00,18.0,17.0,-100.00,NE,50,25.0,-999.0,95,0.00,,,-99.99,,2013-01-29 07:01:00,
2013-01-29 07:11:00,18.0,17.0,-100.00,NE,50,25.0,-999.0,95,0.00,,,-99.99,,2013-01-29 07:11:00,
2013-01-29 07:21:00,18.0,17.0,-100.00,NE,50,25.0,-999.0,95,0.00,,,-99.99,,2013-01-29 07:21:00,
2013-01-29 07:30:00,19.0,18.0,-100.00,NE,43,24.0,-999.0,95,0.00,,,-99.99,,2013-01-29 07:30:00,
2013-01-29 07:52:00,19.0,18.0,-100.00,NE,43,24.0,-999.0,95,0.00,,,-99.99,,2013-01-29 07:52:00,
2013-01-29 08:02:00,19.0,18.0,-100.00,NE,43,24.0,-999.0,95,0.00,,,-99.99,,2013-01-29 08:02:00,
2013-01-29 08:11:00,19.0,18.0,-100.00,NE,43,24.0,-999.0,95,0.00,,,-99.99,,2013-01-29 08:11:00,
2013-01-29 08:21:00,19.0,18.0,-100.00,NE,43,24.0,-999.0,95,0.00,,,-99.99,,2013-01-29 08:21:00,
2013-01-29 08:30:00,21.0,19.0,-100.00,NE,47,22.0,-999.0,94,0.00,,,-99.99,,2013-01-29 08:30:00,
2013-01-29 08:52:00,21.0,19.0,-100.00,NE,47,22.0,-999.0,94,0.00,,,-99.99,,2013-01-29 08:52:00,
2013-01-29 09:01:00,21.0,19.0,-100.00,NE,47,22.0,-999.0,94,0.00,,,-99.99,,2013-01-29 09:01:00,
2013-01-29 09:11:00,21.0,19.0,-100.00,NE,47,22.0,-999.0,94,0.00,,,-99.99,,2013-01-29 09:11:00,
2013-01-29 09:21:00,21.0,19.0,-100.00,NE,47,22.0,-999.0,94,0.00,,,-99.99,,2013-01-29 09:21:00,
2013-01-29 09:30:00,21.0,19.0,-100.00,NE,42,26.0,-999.0,93,0.00,,,-99.99,,2013-01-29 09:30:00,
2013-01-29 09:52:00,21.0,19.0,-100.00,NE,42,26.0,-999.0,93,0.00,,,-99.99,,2013-01-29 09:52:00,
2013-01-29 10:01:00,21.0,19.0,-100.00,NE,42,26.0,-999.0,93,0.00,,,-99.99,,2013-01-29 10:01:00,
2013-01-29 10:11:00,21.0,19.0,-100.00,NE,42,26.0,-999.0,93,0.00,,,-99.99,,2013-01-29 10:11:00,
2013-01-29 10:21:00,21.0,19.0,-100.00,NE,42,26.0,-999.0,93,0.00,,,-99.99,,2013-01-29 10:21:00,
2013-01-29 10:30:00,22.0,20.0,-100.00,NE,48,25.0,-999.0,94,0.00,,,-99.99,,2013-01-29 10:30:00,
2013-01-29 10:52:00,22.0,20.0,-100.00,NE,48,25.0,-999.0,94,0.00,,,-99.99,,2013-01-29 10:52:00,
2013-01-29 11:01:00,22.0,20.0,-100.00,NE,48,25.0,-999.0,94,0.00,,,-99.99,,2013-01-29 11:01:00,
2013-01-29 11:11:00,22.0,20.0,-100.00,NE,48,25.0,-999.0,94,0.00,,,-99.99,,2013-01-29 11:11:00,
2013-01-29 11:21:00,22.0,20.0,-100.00,NE,48,25.0,-999.0,94,0.00,,,-99.99,,2013-01-29 11:21:00,
2013-01-29 11:30:00,22.0,21.0,-100.00,NE,51,26.0,-999.0,96,0.00,,,-99.99,,2013-01-29 11:30:00,
2013-01-29 11:52:00,22.0,21.0,-100.00,NE,51,26.0,-999.0,96,0.00,,,-99.99,,2013-01-29 11:52:00,
2013-01-29 12:02:00,22.0,21.0,-100.00,NE,51,26.0,-999.0,96,0.00,,,-99.99,,2013-01-29 12:02:00,
2013-01-29 12:12:00,22.0,21.0,-100.00,NE,51,26.0,-999.0,96,0.00,,,-99.99,,2013-01-29 12:12:00,
2013-01-29 12:22:00,22.0,21.0,-100.00,NE,51,26.0,-999.0,96,0.00,,,-99.99,,2013-01-29 12:22:00,
2013-01-29 12:30:00,21.0,20.0,-100.00,NE,49,24.0,-999.0,96,0.00,,,-99.99,,2013-01-29 12:30:00,
2013-01-29 12:53:00,21.0,20.0,-100.00,NE,49,24.0,-999.0,96,0.00,,,-99.99,,2013-01-29 12:53:00,
2013-01-29 13:01:00,21.0,20.0,-100.00,NE,49,24.0,-999.0,96,0.00,,,-99.99,,2013-01-29 13:01:00,
2013-01-29 13:11:00,21.0,20.0,-100.00,NE,49,24.0,-999.0,96,0.00,,,-99.99,,2013-01-29 13:11:00,
2013-01-29 13:22:00,21.0,20.0,-100.00,NE,49,24.0,-999.0,96,0.00,,,-99.99,,2013-01-29 13:22:00,
2013-01-29 13:30:00,21.0,20.0,-100.00,NE,55,23.0,-999.0,96,0.00,,,-99.99,,2013-01-29 13:30:00,
2013-01-29 13:52:00,21.0,20.0,-100.00,NE,55,23.0,-999.0,96,0.00,,,-99.99,,2013-01-29 13:52:00,
2013-01-29 14:02:00,21.0,20.0,-100.00,NE,55,23.0,-999.0,96,0.00,,,-99.99,,2013-01-29 14:02:00,
2013-01-29 14:12:00,21.0,20.0,-100.00,NE,55,23.0,-999.0,96,0.00,,,-99.99,,2013-01-29 14:12:00,
2013-01-29 14:21:00,21.0,20.0,-100.00,NE,55,23.0,-999.0,96,0.00,,,-99.99,,2013-01-29 14:21:00,
2013-01-29 14:30:00,22.0,21.0,-100.00,NE,50,23.0,-999.0,95,0.00,,,-99.99,,2013-01-29 14:30:00,
2013-01-29 14:52:00,22.0,21.0,-100.00,NE,50,23.0,-999.0,95,0.00,,,-99.99,,2013-01-29 14:52:00,
2013-01-29 15:02:00,22.0,21.0,-100.00,NE,50,23.0,-999.0,95,0.00,,,-99.99,,2013-01-29 15:02:00,
2013-01-29 15:11:00,22.0,21.0,-100.00,NE,50,23.0,-999.0,95,0.00,,,-99.99,,2013-01-29 15:11:00,
2013-01-29 15:21:00,22.0,21.0,-100.00,NE,50,23.0,-999.0,95,0.00,,,-99.99,,2013-01-29 15:21:00,
2013-01-29 15:30:00,22.0,20.0,-100.00,NE,46,24.0,-999.0,94,0.00,,,-99.99,,2013-01-29 15:30:00,
2013-01-29 15:53:00,22.0,20.0,-100.00,NE,46,24.0,-999.0,94,0.00,,,-99.99,,2013-01-29 15:53:00,
2013-01-29 16:02:00,22.0,20.0,-100.00,NE,46,24.0,-999.0,94,0.00,,,-99.99,,2013-01-29 16:02:00,
2013-01-29 16:12:00,22.0,20.0,-100.00,NE,46,24.0,-999.0,94,0.00,,,-99.99,,2013-01-29 16:12:00,
2013-01-29 16:22:00,22.0,20.0,-100.00,NE,46,24.0,-999.0,94,0.00,,,-99.99,,2013-01-29 16:22:00,
2013-01-29 16:30:00,22.0,20.0,-100.00,NE,45,21.0,-999.0,94,0.00,,,-99.99,,2013-01-29 16:30:00,
2013-01-29 16:53:00,22.0,20.0,-100.00,NE,45,21.0,-999.0,94,0.00,,,-99.99,,2013-01-29 16:53:00,
2013-01-29 17:02:00,22.0,20.0,-100.00,NE,45,21.0,-999.0,94,0.00,,,-99.99,,2013-01-29 17:02:00,
2013-01-29 17:12:00,22.0,20.0,-100.00,NE,45,21.0,-999.0,94,0.00,,,-99.99,,2013-01-29 17:12:00,
2013-01-29 17:21:00,22.0,20.0,-100.00,NE,45,21.0,-999.0,94,0.00,,,-99.99,,2013-01-29 17:21:00,
2013-01-29 17:30:00,22.0,21.0,-100.00,NE,49,17.0,-999.0,94,0.00,,,-99.99,,2013-01-29 17:30:00,
2013-01-29 17:52:00,22.0,21.0,-100.00,NE,49,17.0,-999.0,94,0.00,,,-99.99,,2013-01-29 17:52:00,
2013-01-29 18:03:00,22.0,21.0,-100.00,NE,49,17.0,-999.0,94,0.00,,,-99.99,,2013-01-29 18:03:00,
2013-01-29 18:12:00,22.0,21.0,-100.00,NE,49,17.0,-999.0,94,0.00,,,-99.99,,2013-01-29 18:12:00,
2013-01-29 18:22:00,22.0,21.0,-100.00,NE,49,17.0,-999.0,94,0.00,,,-99.99,,2013-01-29 18:22:00,
2013-01-29 18:30:00,22.0,20.0,-100.00,NE,49,14.0,-999.0,94,0.00,,,-99.99,,2013-01-29 18:30:00,
2013-01-29 18:52:00,22.0,20.0,-100.00,NE,49,14.0,-999.0,94,0.00,,,-99.99,,2013-01-29 18:52:00,
2013-01-29 19:02:00,22.0,20.0,-100.00,NE,49,14.0,-999.0,94,0.00,,,-99.99,,2013-01-29 19:02:00,
2013-01-29 19:11:00,22.0,20.0,-100.00,NE,49,14.0,-999.0,94,0.00,,,-99.99,,2013-01-29 19:11:00,
2013-01-29 19:22:00,22.0,20.0,-100.00,NE,49,14.0,-999.0,94,0.00,,,-99.99,,2013-01-29 19:22:00,
2013-01-29 19:30:00,22.0,20.0,-100.00,NE,35,14.0,-999.0,91,0.00,,,-99.99,,2013-01-29 19:30:00,
2013-01-29 19:52:00,22.0,20.0,-100.00,NE,35,14.0,-999.0,91,0.00,,,-99.99,,2013-01-29 19:52:00,
2013-01-29 20:02:00,22.0,20.0,-100.00,NE,35,14.0,-999.0,91,0.00,,,-99.99,,2013-01-29 20:02:00,
2013-01-29 20:12:00,22.0,20.0,-100.00,NE,35,14.0,-999.0,91,0.00,,,-99.99,,2013-01-29 20:12:00,
2013-01-29 20:22:00,22.0,20.0,-100.00,NE,35,14.0,-999.0,91,0.00,,,-99.99,,2013-01-29 20:22:00,
2013-01-29 20:30:00,22.0,19.0,-100.00,NE,36,17.0,-999.0,89,0.00,,,-99.99,,2013-01-29 20:30:00,
2013-01-29 20:53:00,22.0,19.0,-100.00,NE,36,17.0,-999.0,89,0.00,,,-99.99,,2013-01-29 20:53:00,
2013-01-29 21:02:00,22.0,19.0,-100.00,NE,36,17.0,-999.0,89,0.00,,,-99.99,,2013-01-29 21:02:00,
2013-01-29 21:12:00,22.0,19.0,-100.00,NE,36,17.0,-999.0,89,0.00,,,-99.99,,2013-01-29 21:12:00,
2013-01-29 21:21:00,22.0,19.0,-100.00,NE,36,17.0,-999.0,89,0.00,,,-99.99,,2013-01-29 21:21:00,
2013-01-29 21:30:00,23.0,19.0,-100.00,NE,34,18.0,-999.0,86,0.00,,,-99.99,,2013-01-29 21:30:00,
2013-01-29 21:53:00,23.0,19.0,-100.00,NE,34,18.0,-999.0,86,0.00,,,-99.99,,2013-01-29 21:53:00,
2013-01-29 22:02:00,23.0,19.0,-100.00,NE,34,18.0,-999.0,86,0.00,,,-99.99,,2013-01-29 22:02:00,
2013-01-29 22:12:00,23.0,19.0,-100.00,NE,34,18.0,-999.0,86,0.00,,,-99.99,,2013-01-29 22:12:00,
2013-01-29 22:21:00,23.0,19.0,-100.00,NE,34,18.0,-999.0,86,0.00,,,-99.99,,2013-01-29 22:21:00,
2013-01-29 22:30:00,23.0,19.0,-100.00,NE,35,16.0,-999.0,85,0.00,,,-99.99,,2013-01-29 22:30:00,
2013-01-29 22:53:00,23.0,19.0,-100.00,NE,35,16.0,-999.0,85,0.00,,,-99.99,,2013-01-29 22:53:00,
2013-01-29 23:02:00,23.0,19.0,-100.00,NE,35,16.0,-999.0,85,0.00,,,-99.99,,2013-01-29 23:02:00,
2013-01-29 23:11:00,23.0,19.0,-100.00,NE,35,16.0,-999.0,85,0.00,,,-99.99,,2013-01-29 23:11:00,
2013-01-29 23:22:00,23.0,19.0,-100.00,NE,35,16.0,-999.0,85,0.00,,,-99.99,,2013-01-29 23:22:00,
2013-01-29 23:30:00,24.0,21.0,-100.00,NE,34,13.0,-999.0,86,0.00,,,-99.99,,2013-01-29 23:30:00,
2013-01-29 23:53:00,24.0,21.0,-100.00,NE,34,13.0,-999.0,86,0.00,,,-99.99,,2013-01-29 23:53:00,